星链-35166 (STARLINK-35166)

导读 | 豆包AI

STARLINK-35166是美国SpaceX公司于2025年9月5日在佛罗里达州卡纳维拉尔角通过“猎鹰”-9火箭发射的星链卫星,属于星链Group 10-22批次任务,为微版星链v2.0卫星之一。 此次发射是SpaceX2025年第104次发射,也是微版星链v2.0第209次发射,发射后星链累计发射达9602颗,在轨约8327颗。星链计划最终部署4.2万颗,旨在提供全球无缝低延迟宽带覆盖。

基本信息
目录编号:
65499
目录名称:
STARLINK-35166
国际标识:
2025-198H
轨道中心:
EARTH
卫星名称:
星链-35166
卫星全名:
星链-35166 (STARLINK-35166)
卫星状态:
在轨 (已飞行211 天)
发射日期:
2025-09-05 UTC
国别 :
美国 (US)
星等 :
--
轨道信息
数据来源 国际轨道数据
星历时间: 2026-04-03T18:20:32+0800
1天前
查看轨道信息
半长轴: 6853.322km
偏心率: 0.0001013
轨道倾角: 53.159°
近地点辐角 54.215°
升交点赤经 156.390°
平近点角 305.894°
近地点: 474.49km
远地点: 475.88km
周期: 94.105分钟
每日圈数: 15.302103
详细信息
固有亮度:
5
最大亮度:
2.5
卫星平台:
Starlink V1.0
覆盖范围:
全球
运营商:
太空探索技术公司
运营商所在国:
美国
制造商(研发单位):
太空探索技术公司
制造商所在国:
美国
使用方式:
暂无
卫星简介
Starlink 计划是 SpaceX 推出的全球卫星互联网项目,通过发射低轨道卫星,为全球尤其是偏远地区提供高速、低延迟的互联网服务。自 2019 年起,Starlink 已部署数千颗卫星,旨在缩小全球数字鸿沟,推动互联网普及。该项目还为军事、航空等行业提供通信支持,带来广泛经济效益。
2D轨道图
3D轨道图
轨道高度分析图
轨道倾角分析图
轨道综合分析图
查看轨道综合分析图